TimeEST,TemperatureF,Dew PointF,Humidity,Sea Level PressureIn,VisibilityMPH,Wind Direction,Wind SpeedMPH,Gust SpeedMPH,PrecipitationIn,Events,Conditions,WindDirDegrees,DateUTC
12:15 AM,41.9,37.0,83,30.03,10.0,WSW,6.9,-,N/A,,Overcast,240,2013-02-03 05:15:00
12:55 AM,41.9,36.7,82,30.01,10.0,SW,6.9,-,N/A,,Overcast,230,2013-02-03 05:55:00
1:15 AM,41.9,36.5,81,30.00,10.0,SW,6.9,-,N/A,,Overcast,230,2013-02-03 06:15:00
1:55 AM,42.3,35.6,77,29.98,10.0,WSW,5.8,-,N/A,,Overcast,240,2013-02-03 06:55:00
2:15 AM,42.3,35.4,77,29.98,10.0,WSW,5.8,-,N/A,,Overcast,240,2013-02-03 07:15:00
2:35 AM,41.9,35.1,77,29.98,10.0,WSW,5.8,-,N/A,,Mostly Cloudy,250,2013-02-03 07:35:00
2:55 AM,41.9,34.9,76,29.97,10.0,Calm,Calm,-,N/A,,Mostly Cloudy,0,2013-02-03 07:55:00
3:15 AM,40.5,34.3,79,29.96,10.0,Calm,Calm,-,N/A,,Scattered Clouds,0,2013-02-03 08:15:00
3:35 AM,36.7,32.9,86,29.96,10.0,Calm,Calm,-,N/A,,Scattered Clouds,0,2013-02-03 08:35:00
3:55 AM,34.9,32.0,89,29.95,10.0,Calm,Calm,-,N/A,,Scattered Clouds,0,2013-02-03 08:55:00
4:15 AM,34.9,32.5,91,29.94,10.0,Calm,Calm,-,N/A,,Mostly Cloudy,0,2013-02-03 09:15:00
4:35 AM,34.7,32.7,92,29.93,10.0,Calm,Calm,-,N/A,,Overcast,0,2013-02-03 09:35:00
4:55 AM,34.7,32.7,92,29.93,10.0,Calm,Calm,-,N/A,,Overcast,0,2013-02-03 09:55:00
5:15 AM,34.5,32.5,92,29.93,10.0,Calm,Calm,-,N/A,,Overcast,0,2013-02-03 10:15:00
5:35 AM,33.8,32.0,93,29.93,10.0,Calm,Calm,-,N/A,,Overcast,0,2013-02-03 10:35:00
5:55 AM,33.8,32.2,94,29.94,10.0,Calm,Calm,-,N/A,,Overcast,0,2013-02-03 10:55:00
6:15 AM,34.7,32.9,93,29.94,10.0,Calm,Calm,-,N/A,,Overcast,0,2013-02-03 11:15:00
6:35 AM,36.0,34.7,95,29.93,10.0,SW,3.5,-,N/A,,Overcast,220,2013-02-03 11:35:00
6:55 AM,35.6,33.4,92,29.93,10.0,Calm,Calm,-,N/A,,Overcast,0,2013-02-03 11:55:00
7:15 AM,36.0,34.0,93,29.94,10.0,Calm,Calm,-,N/A,,Overcast,0,2013-02-03 12:15:00
7:35 AM,35.6,33.4,92,29.95,10.0,Calm,Calm,-,N/A,,Mostly Cloudy,0,2013-02-03 12:35:00
7:55 AM,35.2,33.1,92,29.96,10.0,Calm,Calm,-,N/A,,Mostly Cloudy,0,2013-02-03 12:55:00
8:15 AM,37.0,35.2,93,29.96,10.0,Calm,Calm,-,N/A,,Overcast,0,2013-02-03 13:15:00
8:35 AM,38.1,35.4,90,29.96,10.0,Calm,Calm,-,N/A,,Scattered Clouds,0,2013-02-03 13:35:00
8:55 AM,40.1,35.6,84,29.96,10.0,WSW,5.8,-,N/A,,Clear,240,2013-02-03 13:55:00
9:15 AM,41.4,35.6,80,29.96,10.0,West,3.5,-,N/A,,Clear,260,2013-02-03 14:15:00
9:55 AM,43.2,33.8,70,29.97,10.0,WNW,9.2,-,N/A,,Scattered Clouds,290,2013-02-03 14:55:00
10:15 AM,43.7,33.3,67,29.97,10.0,West,9.2,-,N/A,,Scattered Clouds,260,2013-02-03 15:15:00
10:35 AM,44.4,31.8,61,29.96,10.0,NW,5.8,-,N/A,,Scattered Clouds,310,2013-02-03 15:35:00
10:55 AM,45.1,30.7,57,29.95,10.0,West,6.9,-,N/A,,Mostly Cloudy,270,2013-02-03 15:55:00
11:15 AM,45.9,27.5,49,29.94,10.0,WSW,5.8,-,N/A,,Mostly Cloudy,240,2013-02-03 16:15:00
11:35 AM,46.9,27.7,47,29.94,10.0,SW,8.1,-,N/A,,Mostly Cloudy,220,2013-02-03 16:35:00
11:55 AM,46.2,27.3,48,29.94,10.0,SW,10.4,-,N/A,,Scattered Clouds,220,2013-02-03 16:55:00
12:15 PM,48.2,27.0,44,29.93,10.0,SW,11.5,18.4,N/A,,Scattered Clouds,220,2013-02-03 17:15:00
12:35 PM,47.3,26.1,44,29.92,10.0,WSW,8.1,16.1,N/A,,Scattered Clouds,240,2013-02-03 17:35:00
12:55 PM,47.5,25.5,42,29.90,10.0,WSW,3.5,-,N/A,,Mostly Cloudy,250,2013-02-03 17:55:00
1:15 PM,48.7,24.6,39,29.89,10.0,West,10.4,16.1,N/A,,Mostly Cloudy,280,2013-02-03 18:15:00
1:35 PM,49.6,25.2,38,29.88,10.0,WSW,6.9,-,N/A,,Scattered Clouds,250,2013-02-03 18:35:00
1:55 PM,49.1,24.1,38,29.87,10.0,WSW,6.9,17.3,N/A,,Scattered Clouds,240,2013-02-03 18:55:00
2:15 PM,49.8,24.4,37,29.87,10.0,WNW,6.9,-,N/A,,Scattered Clouds,290,2013-02-03 19:15:00
2:35 PM,50.4,24.3,36,29.87,10.0,SW,11.5,18.4,N/A,,Mostly Cloudy,220,2013-02-03 19:35:00
2:55 PM,49.3,24.4,38,29.87,10.0,West,5.8,-,N/A,,Overcast,270,2013-02-03 19:55:00
3:15 PM,50.2,24.8,37,29.86,10.0,West,10.4,-,N/A,,Overcast,260,2013-02-03 20:15:00
3:35 PM,51.1,25.2,36,29.87,10.0,West,10.4,16.1,N/A,,Overcast,260,2013-02-03 20:35:00
3:55 PM,50.7,25.0,37,29.87,10.0,West,6.9,19.6,N/A,,Overcast,270,2013-02-03 20:55:00
4:15 PM,50.9,25.3,37,29.87,10.0,West,8.1,-,N/A,,Overcast,270,2013-02-03 21:15:00
4:55 PM,50.9,25.3,37,29.87,10.0,West,10.4,-,N/A,,Scattered Clouds,280,2013-02-03 21:55:00
5:15 PM,50.4,25.5,38,29.88,10.0,West,6.9,-,N/A,,Scattered Clouds,270,2013-02-03 22:15:00
5:35 PM,49.3,25.9,40,29.90,10.0,WNW,5.8,-,N/A,,Scattered Clouds,300,2013-02-03 22:35:00
5:55 PM,48.9,24.1,38,29.91,10.0,WNW,8.1,-,N/A,,Clear,290,2013-02-03 22:55:00
6:15 PM,48.2,22.8,37,29.91,10.0,WNW,6.9,-,N/A,,Scattered Clouds,290,2013-02-03 23:15:00
6:35 PM,47.1,22.6,38,29.92,10.0,WNW,3.5,-,N/A,,Clear,300,2013-02-03 23:35:00
6:55 PM,44.8,23.9,44,29.92,10.0,North,4.6,-,N/A,,Clear,350,2013-02-03 23:55:00
7:15 PM,45.1,23.9,43,29.94,10.0,Calm,Calm,-,N/A,,Clear,0,2013-02-04 00:15:00
7:35 PM,43.9,23.9,45,29.94,10.0,NW,3.5,-,N/A,,Clear,310,2013-02-04 00:35:00
7:55 PM,42.8,23.9,47,29.94,10.0,NW,3.5,-,N/A,,Clear,320,2013-02-04 00:55:00
8:15 PM,36.1,25.5,65,29.96,10.0,Calm,Calm,-,N/A,,Clear,0,2013-02-04 01:15:00
8:35 PM,42.1,23.4,48,29.96,10.0,West,3.5,-,N/A,,Clear,280,2013-02-04 01:35:00
8:55 PM,40.8,23.4,50,29.97,10.0,Calm,Calm,-,N/A,,Clear,0,2013-02-04 01:55:00
9:15 PM,32.2,24.8,74,29.98,10.0,Calm,Calm,-,N/A,,Clear,0,2013-02-04 02:15:00
9:35 PM,34.3,25.5,70,29.98,10.0,Calm,Calm,-,N/A,,Clear,0,2013-02-04 02:35:00
9:55 PM,35.1,24.6,66,29.99,10.0,Calm,Calm,-,N/A,,Clear,0,2013-02-04 02:55:00
10:15 PM,30.6,24.3,77,29.99,10.0,Calm,Calm,-,N/A,,Clear,0,2013-02-04 03:15:00
10:35 PM,31.5,24.3,75,29.99,10.0,Calm,Calm,-,N/A,,Clear,0,2013-02-04 03:35:00
10:55 PM,28.6,23.7,82,29.99,10.0,Calm,Calm,-,N/A,,Clear,0,2013-02-04 03:55:00
11:15 PM,29.8,24.4,80,29.99,10.0,Calm,Calm,-,N/A,,Clear,0,2013-02-04 04:15:00
11:35 PM,28.9,23.5,80,30.00,10.0,Calm,Calm,-,N/A,,Clear,0,2013-02-04 04:35:00
11:55 PM,27.3,23.5,86,30.00,10.0,Calm,Calm,-,N/A,,Clear,0,2013-02-04 04:55:00